Quillayute, WA
on Sunday, December 9, 2012

Sunday
Previous Day Next Day
Daily Summary
 ActualAverageRecord
Temperature
Mean Temperature °F 40°F  
Max Temperature 47°F 46°F 57°F (2014)
Min Temperature 38°F 35°F 17°F (2009)
Degree Days
Heating Degree Days 22 25  
Month to date heating degree days 217  
Since 1 July heating degree days 1931  
Cooling Degree Days 0 0  
Month to date cooling degree days 0  
Year to date cooling degree days 19  
Moisture
Dew Point 42°F   
Average Humidity 97    
Maximum Humidity 100    
Minimum Humidity 90    
Precipitation
Precipitation 0.25 in 0.41 in 2.54 in (1995)
Month to date precipitation 4.07  
Year to date precipitation 90.62  
Wind
Wind Speed 5 mph   
Max Wind Speed 10 mph   
Max Gust Speed 17 mph   
Visibility 2 miles   
Events Fog , Rain   

Key: T is trace of precipitation, MM is missing value
Source: NWS Daily Summary
Time(PST)TemperatureDew PointHumidity Pressure Visibility Wind DirectionWind SpeedGust SpeedPrecipitationEvents Conditions
12:53 AM 37.9°F 37.0°F 97% 30.31 in 3.0 miles East 4.6 mph - 0.00 in   Overcast
1:53 AM 37.9°F 37.0°F 97% 30.31 in 4.0 miles East 4.6 mph - 0.00 in Rain Light Rain
2:53 AM 37.9°F 37.0°F 97% 30.32 in 6.0 miles East 5.8 mph - 0.00 in   Overcast
3:40 AM 39.2°F 37.4°F 93% 30.31 in 2.0 miles ENE 6.9 mph - N/A   Overcast
3:53 AM 39.0°F 37.0°F 93% 30.30 in 2.0 miles East 6.9 mph - 0.01 in   Overcast
4:10 AM 39.2°F 37.4°F 93% 30.30 in 4.0 miles East 3.5 mph - N/A   Overcast
4:53 AM 39.0°F 37.9°F 96% 30.30 in 3.0 miles ENE 5.8 mph - N/A   Overcast
5:53 AM 39.0°F 37.9°F 96% 30.29 in 2.5 miles East 5.8 mph - N/A   Overcast
6:04 AM 39.2°F 37.4°F 93% 30.28 in 4.0 miles East 4.6 mph - N/A   Overcast
6:17 AM 39.2°F 37.4°F 93% 30.29 in 2.0 miles ENE 6.9 mph - N/A   Overcast
6:37 AM 39.2°F 39.2°F 100% 30.28 in 1.5 miles East 6.9 mph - 0.00 in Rain Light Rain
6:44 AM 39.2°F 39.2°F 100% 30.29 in 1.2 miles East 6.9 mph - 0.00 in Rain Light Rain
6:53 AM 39.0°F 39.0°F 100% 30.29 in 1.2 miles East 5.8 mph - 0.01 in Rain Light Rain
7:44 AM 39.2°F 39.2°F 100% 30.28 in 1.5 miles East 8.1 mph - 0.03 in   Overcast
7:53 AM 39.9°F 39.0°F 97% 30.29 in 1.8 miles ENE 5.8 mph - 0.03 in   Overcast
8:06 AM 39.2°F 39.2°F 100% 30.28 in 1.2 miles East 8.1 mph - 0.01 in   Overcast
8:21 AM 39.2°F 39.2°F 100% 30.27 in 1.0 miles East 5.8 mph - 0.01 in Rain Light Rain
8:38 AM 41.0°F 39.2°F 93% 30.27 in 1.8 miles East 5.8 mph - 0.02 in   Overcast
8:53 AM 41.0°F 39.9°F 96% 30.27 in 1.2 miles East 4.6 mph - 0.02 in   Overcast
9:03 AM 41.0°F 41.0°F 100% 30.27 in 2.0 miles East 3.5 mph - N/A   Overcast
9:24 AM 42.8°F 41.0°F 93% 30.26 in 1.5 miles East 6.9 mph - N/A   Overcast
9:34 AM 42.8°F 41.0°F 93% 30.25 in 2.0 miles East 6.9 mph - N/A   Overcast
9:44 AM 42.8°F 42.8°F 100% 30.26 in 5.0 miles East 6.9 mph - N/A   Overcast
9:53 AM 43.0°F 42.1°F 97% 30.27 in 7.0 miles East 3.5 mph - N/A   Overcast
10:53 AM 45.0°F 43.0°F 93% 30.27 in 3.0 miles Variable 5.8 mph - N/A   Overcast
11:03 AM 44.6°F 42.8°F 93% 30.26 in 1.8 miles SSE 8.1 mph - N/A   Overcast
11:15 AM 44.6°F 44.6°F 100% 30.26 in 2.0 miles SSE 5.8 mph - 0.01 in Rain Light Rain
11:26 AM 44.6°F 44.6°F 100% 30.25 in 3.0 miles SSE 8.1 mph - 0.01 in Rain Light Rain
11:48 AM 44.6°F 44.6°F 100% 30.26 in 2.5 miles Variable 3.5 mph - 0.01 in Rain Light Rain
11:53 AM 45.0°F 44.1°F 97% 30.26 in 2.5 miles SSE 9.2 mph - 0.01 in Rain Light Rain
11:58 AM 44.6°F 44.6°F 100% 30.25 in 1.2 miles SE 6.9 mph - 0.00 in Rain Light Rain
12:11 PM 44.6°F 44.6°F 100% 30.24 in 1.5 miles SSE 6.9 mph - 0.01 in Rain Light Rain
12:30 PM 44.6°F 44.6°F 100% 30.23 in 2.0 miles Variable 6.9 mph - 0.02 in Rain Light Rain
12:41 PM 46.4°F 44.6°F 93% 30.23 in 1.8 miles SSE 5.8 mph - 0.02 in Rain Light Rain
12:53 PM 46.0°F 44.1°F 93% 30.25 in 1.5 miles SSE 4.6 mph - 0.03 in Rain Light Rain
1:07 PM 46.4°F 44.6°F 93% 30.24 in 1.0 miles SSE 5.8 mph - 0.00 in Rain Light Rain
1:38 PM 46.4°F 44.6°F 93% 30.23 in 0.8 miles SE 5.8 mph - 0.03 in Rain Light Rain
1:53 PM 46.0°F 45.0°F 96% 30.23 in 0.8 miles SSE 5.8 mph - 0.03 in Rain Light Rain
2:13 PM 46.4°F 44.6°F 93% 30.23 in 1.0 miles SE 3.5 mph - 0.01 in Rain Light Rain
2:29 PM 46.4°F 46.4°F 100% 30.23 in 0.8 miles Calm Calm - 0.02 in Rain Light Rain
2:51 PM 46.4°F 46.4°F 100% 30.23 in 1.0 miles Calm Calm - 0.02 in   Mist
2:53 PM 46.0°F 46.0°F 100% 30.24 in 1.0 miles Calm Calm - 0.02 in Rain Light Rain
3:05 PM 46.4°F 46.4°F 100% 30.23 in 0.8 miles East 4.6 mph - 0.01 in Rain Light Rain
3:44 PM 46.4°F 44.6°F 93% 30.25 in 0.5 miles ENE 3.5 mph - 0.03 in Fog , Rain Light Rain
3:53 PM 46.0°F 45.0°F 96% 30.25 in 0.5 miles ENE 5.8 mph - 0.03 in Fog , Rain Light Rain
4:53 PM 45.0°F 44.1°F 97% 30.26 in 1.0 miles ENE 5.8 mph - 0.03 in   Mist
5:45 PM 44.6°F 42.8°F 93% 30.25 in 1.0 miles East 3.5 mph - 0.01 in   Mist
5:53 PM 44.1°F 43.0°F 96% 30.25 in 1.5 miles East 4.6 mph - 0.01 in   Overcast
6:02 PM 42.8°F 42.8°F 100% 30.25 in 2.0 miles ENE 4.6 mph - N/A   Overcast
6:35 PM 44.6°F 42.8°F 93% 30.27 in 1.8 miles NNE 5.8 mph - N/A   Overcast
6:53 PM 44.1°F 43.0°F 96% 30.29 in 1.0 miles NNE 3.5 mph - N/A   Mist
7:11 PM 42.8°F 42.8°F 100% 30.28 in 0.8 miles ENE 4.6 mph - 0.01 in   Mist
7:34 PM 42.8°F 42.8°F 100% 30.29 in 1.0 miles NE 4.6 mph - 0.01 in   Mist
7:51 PM 42.8°F 42.8°F 100% 30.29 in 0.8 miles ENE 4.6 mph - 0.01 in   Mist
7:53 PM 43.0°F 43.0°F 100% 30.30 in 0.8 miles ENE 4.6 mph - 0.01 in   Mist
8:25 PM 42.8°F 42.8°F 100% 30.30 in 1.0 miles ENE 3.5 mph - 0.01 in   Mist
8:53 PM 43.0°F 43.0°F 100% 30.31 in 1.2 miles ENE 3.5 mph - 0.01 in   Overcast
9:11 PM 42.8°F 42.8°F 100% 30.32 in 1.5 miles NE 4.6 mph - N/A   Overcast
9:27 PM 42.8°F 42.8°F 100% 30.33 in 1.0 miles NE 3.5 mph - N/A   Mist
9:40 PM 42.8°F 42.8°F 100% 30.33 in 1.0 miles Calm Calm - N/A   Mist
9:53 PM 43.0°F 43.0°F 100% 30.33 in 1.2 miles Calm Calm - 0.00 in Rain Light Rain
10:14 PM 42.8°F 42.8°F 100% 30.34 in 2.0 miles NNW 3.5 mph - 0.00 in   Overcast
10:24 PM 42.8°F 42.8°F 100% 30.34 in 5.0 miles Calm Calm - 0.00 in   Overcast
10:53 PM 42.1°F 42.1°F 100% 30.36 in 8.0 miles Calm Calm - 0.00 in   Overcast
11:11 PM 42.8°F 42.8°F 100% 30.36 in 4.0 miles Calm Calm - N/A   Overcast
11:19 PM 42.8°F 42.8°F 100% 30.36 in 7.0 miles Calm Calm - N/A   Mostly Cloudy
11:31 PM 41.0°F 41.0°F 100% 30.36 in 2.5 miles Calm Calm - N/A   Scattered Clouds
11:33 PM 41.0°F 41.0°F 100% 30.36 in 1.0 miles Calm Calm - N/A   Scattered Clouds
11:35 PM 41.0°F 41.0°F 100% 30.36 in 0.5 miles Calm Calm - N/A Fog Fog
11:38 PM 41.0°F 39.2°F 93% 30.36 in 0.2 miles Calm Calm - N/A Fog Fog
11:48 PM 39.2°F 39.2°F 100% 30.36 in 0.2 miles Calm Calm - N/A Fog Fog
11:53 PM 39.0°F 39.0°F 100% 30.37 in 0.2 miles Calm Calm - N/A Fog Fog
Moon Phase
Dec. 09 Dec. 13 Dec. 20 Dec. 28 Jan. 04
Sunrise:07:56 AM (PST) Moon Rise:03:22 AM (PST)12/9
Sunset:04:25 PM (PST) Moon Set:01:47 PM (PST)12/9

Copyright © 2014 The Weather Underground, Inc.